AirNav   Everest Fuels
 
 1113 users online  

MA87 Cape Air Seaplanes on Boston Harbor Seaplane Base
Boston, Massachusetts, USA

GOING TO BOSTON?


FAA INFORMATION EFFECTIVE 21 MAY 2020

Location

FAA Identifier: MA87
Lat/Long: 42-21-09.0000N 071-01-33.0000W
42-21.150000N 071-01.550000W
42.3525000,-71.0258333
(estimated)
Elevation: 0 ft. / 0 m
From city: 1 mile SE of BOSTON, MA
Time zone: UTC -4 (UTC -5 during Standard Time)
Zip code: 02127

Seaplane Base Operations

Seaplane Base use: Private use. Permission required prior to landing
Activation date: 09/2016
Control tower: no
ARTCC: BOSTON CENTER
FSS: BRIDGEPORT FLIGHT SERVICE STATION
Attendance: 
Segmented circle: no

Seaplane Base Communications

WX ASOS at BOS (1.1 nm NE): PHONE 617-567-5762
WX ASOS at OWD (12 nm SW): 119.95 (781-762-4314)
WX ASOS at BED (14 nm NW): 124.6 (781-274-9733)
WX ASOS at BVY (15 nm N): PHONE 978-921-5042

Nearby radio navigation aids

VOR radial/distance  VOR name  Freq  Var
BOSr276/1.6BOSTON VOR/DME112.7016W
LWMr188/23.5LAWRENCE VOR/DME112.5015W
MHTr169/34.5MANCHESTER VOR/DME114.4015W

 
NDB name  Hdg/Dist  Freq  Var  ID
STOGE033/14.739715WOW --- .--
PROVINCETOWN312/39.538916WPVC .--. ...- -.-.

Seaplane Base Services

Runway Information

Runway 14W/32W

Dimensions: 2500 x 60 ft. / 762 x 18 m
Surface: water
RUNWAY 14W  RUNWAY 32W
Latitude: 42-21.150000N
Longitude: 071-01.550000W
Elevation: 0.0 ft.
Traffic pattern: leftleft

Seaplane Base Ownership and Management from official FAA records

Ownership: Privately-owned
Owner: HYANNIS AIR SERVICE, INC
660 BARNSTABLE RD
HYANNIS, MA 02601
Phone 508-862-9719
Manager: ANDREW BONNEY
660 BARNSTABLE RD
HYANNIS, MA 02601
Phone 508-862-9719

Additional Remarks

FOR CD CTC BOSTON ARTCC AT 603-879-6859.
IATA ID: BNH.

Instrument Procedures

There are no published instrument procedures at MA87.

Some nearby airports with instrument procedures:

KBOS - General Edward Lawrence Logan International Airport (1 nm NE)
KOWD - Norwood Memorial Airport (12 nm SW)
KBED - Laurence G Hanscom Field Airport (14 nm NW)
KBVY - Beverly Regional Airport (15 nm N)
KGHG - Marshfield Municipal Airport - George Harlow Field (22 nm SE)
 
Loc | Ops | Rwys | IFR | FBO | Links
Com | Nav | Svcs | Stats | Notes
Aerial photo
No photo
 
Airport distance calculator
Flying to Cape Air Seaplanes on Boston Harbor Seaplane Base? Find the distance to fly.

From to MA87

Sunrise and sunset
Times for 28-May-2020
 Local
(UTC-4)
 Zulu
(UTC)
Morning civil twilight04:3908:39
Sunrise05:1209:12
Sunset20:1100:11
Evening civil twilight20:4400:44

Current date and time
Zulu (UTC)  28-May-2020 23:30:19
Local (UTC-4)  28-May-2020 19:30:19
 
METAR
KBOS 282254Z 20013KT 10SM FEW027 BKN040 BKN250 23/17 A3013 RMK AO2 SLP201 T02330172
KMQE 
9nm SW 
282251Z AUTO 19013G19KT 22/17 A3014 RMK AO1 SLP213 T02220172
KOWD 
12nm SW 
282253Z 19008KT 10SM BKN042 24/18 A3013 RMK AO2 SLP203 T02440178
KBED 
14nm NW 
282251Z 19010KT 10SM BKN042 24/18 A3011 RMK AO2 SLP206 T02440178
KBVY 
15nm N 
282253Z 21015G21KT 10SM BKN044 25/17 A3011 RMK AO2 SLP191 T02500172
TAF
KBOS 282028Z 2820/2924 22013G20KT P6SM VCSH OVC035 FM290100 20008KT P6SM VCSH BKN015 FM290500 20010KT 4SM BR VCSH OVC007 FM291500 21012G19KT P6SM BKN020 FM292000 20014G24KT P6SM SCT025 BKN080 FM292300 20011G23KT P6SM BKN025
KBED 
14nm NW 
282028Z 2820/2918 22011G17KT P6SM BKN035 FM290000 20008KT P6SM BKN015 FM290300 20007KT 4SM BR VCSH OVC007 FM291500 21012G19KT P6SM BKN020
NOTAMs
Click for the latest NOTAMs
NOTAMs are issued by the DoD/FAA and will open in a separate window not controlled by AirNav.

 

 
 

Would you like to see your business listed on this page?

 If your business provides an interesting product or service to pilots, flight crews, aircraft, or users of the Cape Air Seaplanes on Boston Harbor Seaplane Base, you should consider listing it here.  To start the listing process, click on the button below
 
Add a business
 

Other Pages about Cape Air Seaplanes on Boston Harbor Seaplane Base

Update a link
 
Copyright © AirNav, LLC. All rights reserved. Privacy Policy  Contact